This is the latest recevied weather packets stored in our database for station/object SP8PUB-10. If no packets are shown the sender has not sent any weather packets the latest 10 day(s).
| Time | Temp. | Humidity | Pressure | Rain* | Wind** | Luminosity | Snow |
|---|---|---|---|---|---|---|---|
| 1777862586 | 6.11° C | 96% | 1017.2 hPa | - | - | - | - |
| 1777861686 | 6.11° C | 95% | 1017.2 hPa | - | - | - | - |
| 1777860786 | 6.67° C | 93% | 1017.2 hPa | - | - | - | - |
| 1777859886 | 6.67° C | 93% | 1017.1 hPa | - | - | - | - |
| 1777858986 | 6.67° C | 92% | 1017.1 hPa | - | - | - | - |
| 1777858086 | 6.67° C | 92% | 1017.2 hPa | - | - | - | - |
| 1777857186 | 7.22° C | 90% | 1017.2 hPa | - | - | - | - |
| 1777856286 | 7.22° C | 90% | 1017.3 hPa | - | - | - | - |
| 1777855385 | 7.22° C | 90% | 1017.5 hPa | - | - | - | - |
| 1777854485 | 7.22° C | 90% | 1017.4 hPa | - | - | - | - |
| 1777853585 | 7.78° C | 88% | 1017.4 hPa | - | - | - | - |
| 1777852685 | 7.78° C | 87% | 1017.4 hPa | - | - | - | - |
| 1777851785 | 8.33° C | 85% | 1017.5 hPa | - | - | - | - |
| 1777850885 | 8.33° C | 82% | 1017.4 hPa | - | - | - | - |
| 1777849985 | 9.44° C | 76% | 1017.5 hPa | - | - | - | - |
| 1777849085 | 11.11° C | 68% | 1017.5 hPa | - | - | - | - |
| 1777847289 | 11.67° C | 67% | 1017.4 hPa | - | - | - | - |
| 1777846389 | 11.67° C | 67% | 1017.5 hPa | - | - | - | - |
| 1777845489 | 11.67° C | 66% | 1017.5 hPa | - | - | - | - |
| 1777844588 | 12.22° C | 64% | 1017.6 hPa | - | - | - | - |
| 1777843688 | 12.78° C | 61% | 1017.5 hPa | - | - | - | - |
| 1777842788 | 13.33° C | 60% | 1017.5 hPa | - | - | - | - |
| 1777841888 | 13.89° C | 59% | 1017.4 hPa | - | - | - | - |
| 1777840988 | 14.44° C | 58% | 1017.5 hPa | - | - | - | - |
| 1777840088 | 14.44° C | 57% | 1017.5 hPa | - | - | - | - |
* Rain since midnight (hover to see other rain measurements)
** Current wind speed in m/s (hover to see current wind gust speed)